Vorticity
4 2 7 3 4 3 8 16 25 -1 6 11 1 3 5 4 5 12 12 7 4 6 3 2 3 -0 0 1 -1 7 7 8 7 7 6 6 6 7 8 9 10 10 6 6 6 6 6 11 11
4 6 2 7 -0 -3 25 -24 10 3 8 3 1 3 4 4 -1 11 17 1 5 4 4 3 2 1 -1 0 -0 -0 1 13 7 7 7 7 6 6 7 7 8 7 6 6 6 6 6 6 7
-1 9 2 8 7 12 13 35 6 12 8 13 15 8 -0 1 7 -3 10 10 7 5 6 2 -1 2 -3 1 -1 1 -2 3 11 8 7 7 7 8 7 7 7 8 8 9 8 7 6 6 7
2 1 4 3 6 5 -26 -1 15 7 7 11 6 -4 10 22 4 7 1 4 11 8 6 2 3 1 0 -2 1 1 0 0 3 10 7 6 6 6 8 8 8 7 6 6 6 7 8 9 9
-2 1 12 18 4 9 7 3 18 10 19 18 6 8 8 -1 5 8 11 1 1 11 5 4 2 2 1 1 -0 -0 0 3 2 2 10 5 7 4 3 4 6 7 8 8 8 8 7 7 7
-32 2 -2 4 12 -4 -8 20 -5 10 13 10 -1 8 8 10 13 8 11 16 10 5 16 5 3 2 2 2 2 0 2 3 2 2 5 9 7 3 7 8 5 4 4 4 4 3 4 4 5
13 -5 -1 15 12 0 9 -0 -1 4 10 6 -16 11 9 11 8 3 2 4 9 13 11 6 5 5 5 4 2 1 -0 0 1 1 2 3 7 9 4 3 3 5 4 3 4 4 5 5 4
7 6 -10 8 -2 10 -16 11 -3 14 -6 5 1 14 8 4 3 10 8 4 6 5 9 8 8 6 5 5 4 4 2 2 1 1 -0 2 2 3 7 4 4 2 3 3 1 3 4 3 3
14 -4 -7 12 11 9 -22 33 14 13 1 -6 12 4 12 10 7 2 1 5 5 1 -2 5 8 8 6 6 6 5 4 1 1 1 0 1 2 1 2 4 1 5 3 4 4 2 4 5 3
-10 3 -8 9 3 -15 6 33 5 11 10 -9 9 8 1 4 7 6 5 2 6 5 7 2 3 2 4 9 10 9 6 5 4 2 2 2 1 1 0 0 2 1 1 3 4 3 1 2 3
15 -14 9 3 13 4 -16 34 -7 13 21 -12 7 11 4 8 3 6 5 5 2 4 8 12 10 7 4 1 5 9 8 7 5 4 4 3 3 3 2 1 1 2 2 1 2 3 2 3 3
10 6 4 -0 13 -19 1 38 2 10 6 28 1 1 8 4 -1 5 2 1 3 6 5 5 6 7 11 12 11 12 5 6 7 6 4 5 3 3 2 3 3 3 3 3 3 2 1 1 2
11 39 8 22 -4 31 -22 15 2 -11 5 -3 22 8 9 9 6 2 -0 0 2 3 4 3 0 4 5 6 5 5 2 9 10 8 7 5 4 5 4 4 4 3 3 4 4 3 3 3 2
21 -15 16 29 5 3 -0 4 7 9 -4 3 -3 8 3 3 7 11 10 5 2 -1 0 2 3 3 0 3 8 9 9 9 4 7 8 9 9 8 7 6 5 5 5 4 4 4 4 5 5
9 -5 11 6 23 10 4 11 5 -9 11 23 -7 -0 2 4 4 5 7 11 9 5 4 1 4 1 1 1 4 6 6 7 4 6 8 9 8 8 7 7 6 6 9 9 6 6 5 4 4
3 33 -5 9 6 24 12 15 3 -9 -0 -4 12 6 -3 -3 1 1 3 7 8 11 9 4 0 1 2 3 5 3 4 7 9 6 6 7 4 4 4 4 5 7 5 6 8 11 10 10 8
-9 26 -2 3 11 -17 9 7 -1 27 13 12 0 2 9 11 8 5 5 4 5 5 5 7 6 4 3 7 7 6 6 3 7 4 5 5 2 1 3 3 6 6 8 7 5 2 2 6 9
1 -3 17 -15 -4 11 -4 14 -23 24 8 17 20 9 7 5 6 5 6 4 5 7 6 5 2 3 4 7 4 4 6 3 6 3 3 4 3 3 3 4 5 6 6 8 10 9 7 5 4
13 -12 17 23 10 11 6 2 10 9 5 12 5 1 14 14 5 6 6 4 7 7 8 8 7 5 2 2 4 5 5 4 1 1 2 3 3 4 3 1 5 4 5 7 4 3 4 8 7
9 35 6 8 -1 24 4 6 6 15 -1 1 0 7 1 2 3 3 3 4 9 10 9 9 7 6 7 8 9 8 6 5 6 8 7 5 3 4 4 6 6 6 6 7 7 5 5 6 5
-12 10 14 -8 31 1 17 10 5 -1 16 9 8 12 5 8 5 4 6 7 11 9 9 9 9 9 10 10 10 9 10 10 11 12 12 14 15 12 13 11 10 10 9 8 7 8 5 8 7
9 13 9 27 1 -11 7 11 24 24 24 12 5 4 9 9 8 7 6 6 7 8 11 11 11 11 10 11 11 12 12 11 9 9 10 10 12 14 10 10 12 11 11 12 11 7 6 5 7
24 5 6 22 8 16 18 -4 55 -4 5 23 12 10 9 6 7 6 6 8 11 11 12 12 12 12 13 13 13 12 12 12 12 13 14 14 12 13 17 17 14 14 16 12 7 13 13 10 8
12 16 15 5 0 8 -0 -28 35 5 4 13 11 11 18 17 15 15 15 14 15 13 12 11 11 10 9 8 8 7 6 4 4 6 5 5 6 6 6 6 7 7 8 13 14 16 14 11 13
7 6 2 6 8 4 40 11 -34 20 12 13 11 12 14 14 13 14 14 13 12 11 9 7 6 5 5 6 8 8 8 7 6 6 7 7 8 8 7 8 9 10 12 9 9 10 12 13 9
14 -16 -6 8 10 15 13 19 -12 34 -9 3 9 17 15 14 12 11 10 9 10 11 10 10 9 8 6 6 7 7 9 11 11 11 10 10 10 8 7 6 6 7 8 8 8 8 10 11 16
24 -9 -2 -1 14 1 7 14 9 25 11 7 5 3 12 8 9 8 7 5 5 5 5 5 5 6 8 9 11 12 11 11 13 14 14 16 17 17 15 12 11 10 9 8 9 9 8 8 7
7 -4 10 4 7 7 32 15 -19 6 -1 4 3 8 10 8 8 8 7 7 7 7 8 9 10 10 10 11 12 12 13 13 13 13 13 13 14 15 15 14 13 13 13 14 16 14 13 11 8
4 10 -14 -2 1 9 10 16 29 3 21 10 8 12 10 9 4 4 6 7 9 11 12 11 11 12 12 12 12 12 11 10 8 9 11 13 13 13 12 12 12 14 10 12 12 13 15 16 15
-4 0 4 -17 15 4 5 15 16 22 19 15 13 10 10 4 7 8 9 10 10 10 10 8 11 12 14 14 12 9 7 7 8 9 11 10 13 10 10 9 9 8 11 10 5 9 17 11 -3
Height
3153 3155 3157 3159 3165 3162 3160 3163 3164 3165 3166 3168 3170 3174 3173 3174 3176 3182 3182 3184 3187 3189 3191 3193 3195 3196 3197 3197 3196 3196 3195 3195 3194 3193 3193 3192 3191 3190 3190 3188 3188 3188 3188 3187 3187 3187 3187 3186 3187
3150 3153 3155 3156 3159 3159 3159 3160 3163 3163 3165 3168 3171 3174 3174 3174 3176 3178 3182 3184 3186 3188 3190 3192 3194 3196 3196 3196 3196 3196 3196 3195 3195 3194 3194 3193 3192 3191 3191 3190 3190 3189 3189 3189 3188 3188 3188 3188 3188
3148 3150 3153 3154 3155 3156 3157 3158 3159 3162 3164 3167 3170 3173 3172 3173 3176 3178 3180 3183 3185 3187 3189 3192 3193 3195 3196 3196 3196 3196 3196 3196 3196 3195 3194 3194 3193 3193 3192 3192 3191 3191 3191 3190 3190 3190 3190 3189 3189
3145 3148 3151 3150 3150 3153 3155 3158 3160 3161 3164 3167 3168 3171 3172 3174 3176 3177 3179 3183 3184 3186 3188 3191 3192 3194 3195 3196 3196 3196 3196 3196 3197 3196 3196 3195 3195 3194 3194 3194 3193 3193 3193 3192 3192 3192 3191 3191 3190
3141 3144 3146 3146 3148 3149 3154 3159 3160 3161 3163 3166 3168 3169 3170 3173 3175 3175 3176 3181 3184 3185 3187 3189 3191 3193 3194 3195 3196 3196 3197 3196 3197 3198 3197 3196 3196 3196 3196 3195 3195 3194 3194 3194 3194 3193 3193 3192 3192
3139 3141 3143 3144 3146 3146 3153 3157 3159 3160 3162 3165 3167 3167 3168 3172 3174 3175 3175 3179 3182 3184 3185 3187 3189 3191 3193 3194 3195 3196 3196 3197 3197 3197 3198 3197 3197 3197 3197 3196 3196 3196 3196 3196 3196 3195 3195 3194 3193
3132 3137 3138 3144 3145 3145 3151 3156 3158 3159 3161 3164 3165 3165 3168 3170 3172 3173 3175 3177 3180 3182 3184 3186 3188 3190 3192 3193 3194 3195 3196 3196 3197 3197 3197 3198 3198 3198 3198 3198 3198 3198 3198 3197 3197 3197 3196 3196 3195
3127 3134 3137 3139 3141 3142 3147 3154 3155 3157 3159 3162 3162 3162 3166 3168 3171 3173 3175 3177 3180 3182 3183 3185 3186 3188 3190 3191 3193 3194 3196 3196 3196 3197 3197 3197 3198 3198 3198 3199 3199 3199 3198 3198 3198 3197 3197 3197 3196
3117 3126 3129 3136 3137 3138 3143 3146 3151 3154 3157 3158 3158 3162 3166 3167 3170 3172 3174 3176 3179 3180 3182 3183 3185 3186 3188 3189 3191 3193 3194 3195 3196 3196 3196 3197 3197 3197 3197 3198 3198 3198 3198 3198 3198 3198 3197 3197 3196
3113 3115 3119 3131 3134 3135 3139 3145 3148 3152 3154 3155 3156 3160 3164 3166 3168 3170 3172 3175 3176 3178 3180 3182 3182 3184 3186 3188 3189 3190 3191 3193 3194 3194 3195 3195 3196 3196 3196 3196 3196 3197 3197 3197 3197 3197 3196 3195 3195
3109 3111 3116 3127 3132 3132 3138 3142 3147 3149 3150 3153 3154 3158 3162 3165 3167 3169 3171 3172 3174 3175 3177 3180 3181 3183 3184 3186 3186 3187 3189 3190 3191 3191 3192 3193 3194 3194 3194 3195 3194 3194 3195 3194 3195 3195 3194 3194 3194
3108 3112 3116 3125 3129 3129 3136 3142 3141 3147 3147 3149 3152 3155 3158 3162 3165 3167 3169 3171 3172 3173 3174 3176 3179 3180 3182 3183 3183 3184 3185 3186 3188 3188 3188 3189 3191 3191 3192 3192 3192 3193 3192 3192 3192 3192 3192 3192 3191
3103 3108 3115 3123 3128 3130 3133 3139 3140 3145 3144 3147 3149 3152 3155 3159 3161 3164 3167 3169 3169 3170 3172 3174 3175 3176 3177 3179 3180 3181 3182 3182 3184 3185 3185 3185 3187 3188 3189 3189 3189 3189 3189 3189 3189 3188 3188 3188 3187
3100 3107 3112 3119 3125 3128 3132 3134 3136 3142 3142 3144 3147 3150 3153 3155 3158 3160 3163 3164 3166 3168 3169 3170 3171 3173 3174 3176 3176 3177 3178 3179 3180 3180 3181 3182 3182 3183 3184 3185 3185 3184 3184 3184 3185 3184 3183 3183 3182
3099 3105 3109 3115 3119 3122 3125 3129 3129 3135 3137 3139 3144 3147 3149 3152 3155 3157 3159 3160 3160 3163 3165 3167 3167 3169 3170 3171 3172 3172 3172 3173 3174 3175 3176 3177 3177 3177 3179 3179 3180 3180 3180 3179 3179 3179 3179 3179 3179
3098 3103 3107 3112 3116 3118 3122 3122 3126 3132 3134 3136 3139 3142 3145 3148 3151 3153 3154 3155 3156 3156 3158 3163 3165 3165 3166 3166 3167 3168 3169 3169 3169 3170 3172 3172 3173 3173 3173 3173 3174 3174 3174 3173 3172 3172 3172 3173 3173
3095 3098 3103 3109 3111 3114 3119 3118 3123 3126 3128 3132 3135 3138 3141 3144 3146 3147 3148 3149 3150 3152 3152 3154 3157 3161 3162 3161 3161 3163 3165 3164 3165 3166 3166 3168 3169 3169 3168 3168 3169 3167 3166 3167 3167 3166 3165 3165 3166
3083 3092 3098 3101 3107 3109 3113 3115 3119 3122 3124 3127 3130 3133 3135 3137 3140 3141 3141 3141 3145 3146 3149 3150 3150 3151 3152 3155 3157 3158 3159 3159 3159 3160 3161 3161 3161 3162 3162 3162 3162 3162 3160 3159 3159 3160 3159 3159 3159
3087 3093 3097 3101 3106 3109 3109 3111 3116 3119 3120 3121 3125 3127 3129 3131 3132 3132 3134 3136 3138 3139 3142 3146 3148 3147 3146 3146 3146 3148 3152 3153 3154 3154 3154 3154 3154 3153 3153 3154 3155 3155 3153 3153 3152 3151 3151 3151 3152
3087 3090 3094 3099 3103 3106 3107 3107 3110 3115 3115 3117 3121 3122 3124 3126 3126 3125 3126 3129 3132 3134 3136 3137 3139 3141 3142 3143 3143 3142 3142 3143 3145 3148 3149 3148 3147 3146 3144 3144 3144 3145 3145 3144 3144 3143 3142 3142 3143
3084 3088 3092 3096 3098 3101 3103 3104 3104 3107 3109 3111 3112 3115 3117 3119 3119 3119 3120 3123 3127 3129 3130 3131 3132 3133 3134 3134 3135 3135 3135 3135 3136 3137 3137 3139 3138 3138 3136 3135 3135 3135 3135 3135 3135 3135 3134 3134 3133
3082 3087 3090 3091 3096 3099 3102 3098 3098 3101 3103 3103 3104 3108 3111 3112 3113 3113 3114 3118 3120 3121 3122 3124 3125 3126 3127 3127 3128 3129 3129 3127 3127 3127 3128 3128 3129 3129 3128 3127 3126 3126 3126 3125 3125 3125 3124 3123 3124
3084 3087 3089 3092 3095 3096 3098 3100 3091 3095 3094 3096 3099 3101 3103 3105 3107 3107 3109 3112 3114 3115 3116 3116 3117 3119 3120 3120 3120 3121 3120 3120 3119 3118 3118 3119 3119 3119 3120 3119 3118 3117 3116 3115 3115 3116 3114 3113 3112
3081 3085 3089 3092 3093 3095 3092 3095 3085 3086 3090 3091 3093 3095 3097 3099 3100 3102 3103 3104 3106 3107 3109 3110 3111 3112 3112 3113 3114 3113 3113 3113 3113 3112 3110 3110 3111 3111 3111 3111 3111 3109 3108 3107 3105 3105 3104 3103 3102
3080 3084 3090 3095 3094 3090 3087 3090 3081 3082 3084 3087 3089 3090 3092 3093 3094 3097 3098 3099 3100 3102 3103 3104 3105 3105 3105 3106 3106 3106 3105 3106 3106 3105 3104 3103 3102 3101 3100 3100 3100 3101 3101 3100 3098 3096 3095 3093 3091
3078 3082 3081 3088 3089 3084 3085 3080 3076 3078 3081 3083 3085 3086 3088 3088 3091 3093 3094 3095 3096 3098 3098 3098 3099 3099 3099 3099 3098 3097 3097 3097 3096 3095 3094 3094 3093 3093 3092 3091 3090 3090 3090 3090 3090 3088 3085 3084 3082
3075 3077 3080 3080 3081 3080 3077 3075 3073 3073 3076 3077 3079 3082 3084 3085 3088 3089 3091 3091 3092 3093 3093 3093 3093 3093 3092 3091 3091 3090 3089 3088 3087 3087 3086 3086 3084 3084 3083 3082 3080 3080 3080 3079 3078 3078 3077 3075 3073
3072 3077 3079 3079 3082 3079 3071 3071 3067 3068 3071 3072 3075 3078 3081 3083 3084 3086 3087 3087 3088 3088 3088 3087 3086 3085 3084 3084 3083 3082 3082 3081 3081 3080 3079 3078 3077 3077 3075 3074 3072 3071 3070 3069 3069 3067 3067 3066 3064
3069 3071 3074 3075 3075 3074 3072 3066 3065 3066 3068 3069 3073 3076 3078 3080 3082 3083 3083 3083 3083 3083 3082 3081 3079 3078 3077 3076 3076 3076 3076 3075 3074 3073 3072 3072 3070 3069 3068 3067 3066 3064 3062 3061 3060 3059 3057 3055 3054
3065 3067 3069 3070 3072 3070 3069 3065 3063 3064 3066 3068 3070 3072 3075 3078 3078 3078 3078 3077 3076 3076 3075 3074 3073 3071 3070 3070 3070 3070 3069 3068 3068 3067 3067 3065 3064 3063 3061 3060 3059 3057 3056 3054 3052 3050 3047 3046 3044